This is the latest recevied weather packets stored in our database for station/object DO8TBO-15. If no packets are shown the sender has not sent any weather packets the latest 10 day(s).
| Time | Temp. | Humidity | Pressure | Rain* | Wind** | Luminosity | Snow |
|---|---|---|---|---|---|---|---|
| 1777563370 | 20° C | - | 1027.1 hPa | 0 mm | - | - | - |
| 1777562767 | 20° C | - | 1027.3 hPa | 0 mm | - | - | - |
| 1777562163 | 19.44° C | - | 1027.2 hPa | 0 mm | - | - | - |
| 1777561559 | 19.44° C | - | 1027.4 hPa | 0 mm | - | - | - |
| 1777560956 | 19.44° C | - | 1027.3 hPa | 0 mm | - | - | - |
| 1777560351 | 19.44° C | - | 1027.4 hPa | 0 mm | - | - | - |
| 1777559748 | 18.89° C | - | 1027.5 hPa | 0 mm | - | - | - |
| 1777559144 | 18.89° C | - | 1027.6 hPa | 0 mm | - | - | - |
| 1777558541 | 19.44° C | - | 1027.7 hPa | 0 mm | - | - | - |
| 1777557937 | 19.44° C | - | 1027.8 hPa | 0 mm | - | - | - |
| 1777557333 | 18.89° C | - | 1027.8 hPa | 0 mm | - | - | - |
| 1777556729 | 19.44° C | - | 1027.9 hPa | 0 mm | - | - | - |
| 1777556126 | 18.89° C | - | 1028 hPa | 0 mm | - | - | - |
| 1777555521 | 18.89° C | - | 1028.2 hPa | 0 mm | - | - | - |
| 1777554918 | 18.33° C | - | 1028.2 hPa | 0 mm | - | - | - |
| 1777554374 | 18.33° C | - | 1028.2 hPa | 0 mm | - | - | - |
| 1777553770 | 18.33° C | - | 1028.4 hPa | 0 mm | - | - | - |
| 1777553166 | 17.78° C | - | 1028.7 hPa | 0 mm | - | - | - |
| 1777552562 | 17.78° C | - | 1028.7 hPa | 0 mm | - | - | - |
| 1777551959 | 17.78° C | - | 1028.8 hPa | 0 mm | - | - | - |
| 1777551359 | 17.22° C | - | 1028.9 hPa | 0 mm | - | - | - |
| 1777550751 | 17.22° C | - | 1029.1 hPa | 0 mm | - | - | - |
| 1777550148 | 16.67° C | - | 1029.1 hPa | 0 mm | - | - | - |
| 1777549544 | 16.67° C | - | 1029.3 hPa | 0 mm | - | - | - |
| 1777548940 | 16.11° C | - | 1029.5 hPa | 0 mm | - | - | - |
* Rain latest hour (hover to see other rain measurements)
** Current wind speed in m/s (hover to see current wind gust speed)